sat.trackr.live / text

‹ back to catalog

STARLINK-4609

NORAD 53619 · 2022-104AH

PAYLOAD ACTIVE UNKNOWN

§ Identity

Operator
Country
US
Launch date
2022-08-28
Launch site
AFETR
Launch vehicle
Mass (kg)
RCS (m²)

Purposes: comms

External: N2YO · Heavens-Above · Gunter

§ Orbital elements

Epoch: 2026-09-20T02:32:26.388672Z

Period
93.85 min
Inclination
53.1619°
Eccentricity
0.0000954
Mean motion
15.34388267 rev/d
Perigee alt
462.1 km
Apogee alt
463.4 km
Semi-major
6,840.9 km
B*
6.9035e-5
RAAN
69.5808°
Arg perigee
84.0830°
Mean anomaly
276.0281°
Rev number
22,514

§ Raw data

STARLINK-46091 53619U 22104AH  26263.10586098  .00001956  00000+0  69035-4 0  99962 53619  53.1619  69.5808 0000954  84.0830 276.0281 15.34388267225145

JSON: /api/v1/satellites/53619 · /tle

For live sub-satellite position, see the globe view (requires WebGL).

§ Visibility from observer

Set your observer location to see the next 7 days of passes ≥ 10°. The values pass through the URL so the page stays shareable.

No JS? Fill the form by hand. The geolocation button needs JavaScript.